[[{"header":{"parameterUnit":"m.s-1","parameterCategory":1,"la1":30.2992,"la2":30.254,"lo1":-89.0895,"lo2":-89.0443,"dy":0.0025,"dx":0.0025,"nx":19,"ny":19,"refTime":"2026-03-14T09:00:00:Z","depth":0,"parameterNumber":2,"parameterNumberName":"U-component_of_WINDS"},"data":[0,0,0,-1.029,-1.0294,-1.0514,-1.0515,-1.0769,-1.0771,0,0,0,0,0,0,0,0,0,0,0,-1.0208,-1.0209,-1.0289,-1.0294,-1.0514,-1.0515,-1.0769,-1.0771,0,0,0,0,0,0,0,0,0,0,0,-1.0207,-1.0208,-1.021,-1.0295,-1.0513,-1.0515,-1.0768,-1.0612,0,0,0,0,0,0,0,0,0,0,-1.0403,-1.0311,-1.0208,-1.021,-1.0296,-1.0513,-1.0515,-1.0605,-1.0622,-1.0658,0,-1.0685,0,-1.0732,-1.0786,-1.0787,0,0,0,-1.0307,-1.0297,-1.0371,-1.021,-1.0298,-1.0513,-1.0418,-1.0615,-1.0634,-1.068,-1.0689,-1.0699,-1.0736,-1.0788,-1.0789,-1.0952,-1.0952,0,0,-1.0295,-1.0238,-1.0358,-1.0383,-1.0346,-1.0411,-1.0425,-1.0627,-1.0633,-1.069,-1.0705,-1.074,-1.0789,-1.0791,-1.0952,-1.0952,0,0,0,-1.0251,-1.0229,-1.0299,-1.0371,-1.0413,-1.0417,-1.0433,-1.0624,-1.0651,-1.0708,-1.0743,-1.0791,-1.0793,-1.0952,-1.0952,-1.0905,0,0,0,-1.0245,-1.0204,-1.0293,-1.0261,-1.0409,-1.0521,-1.0425,-1.0637,-1.0662,-1.0742,-1.0791,-1.0796,-1.0952,-1.0952,-1.0906,-1.0892,0,0,0,-1.0199,-1.0199,-1.0225,-1.0257,-1.035,-1.0519,-1.0559,-1.0644,-1.0683,-1.0787,-1.0796,-1.0952,-1.0952,-1.0907,-1.0893,-1.0918,0,0,0,-1.0134,-1.018,-1.0223,-1.0288,-1.0347,-1.0488,-1.0558,-1.0666,-1.075,-1.0792,-1.0952,-1.0952,-1.0907,-1.0895,-1.0918,-1.0928,-1.0927,0,0,-1.016,-1.0181,-1.0224,-1.0269,-1.0386,-1.0459,-1.0571,-1.0702,-1.0764,-1.0886,-1.0891,-1.0905,-1.0894,-1.0918,-1.0939,-1.0937,0,0,0,-1.0213,-1.0243,-1.0286,-1.0363,-1.0464,-1.0549,-1.0669,-1.0718,-1.0824,-1.0815,-1.0923,-1.0917,-1.0934,-1.0941,-1.094,-1.0958,-1.0953,-1.0953,-1.0953,-1.0169,-1.0245,-1.0321,-1.0423,-1.0497,-1.062,-1.0687,-1.0774,-1.083,-1.0854,-1.0891,-1.0894,-1.09,-1.09,-1.0917,-1.0902,-1.0902,-1.0902,-1.0902,-1.0214,-1.0268,-1.0341,-1.0441,-1.0521,-1.0606,-1.0726,-1.0763,-1.0854,-1.0873,-1.0892,-1.0906,-1.0896,-1.0915,-1.0899,-1.09,-1.09,-1.09,-1.09,-1.0194,-1.0233,-1.0291,-1.041,-1.0493,-1.0596,-1.0679,-1.0751,-1.0818,-1.0836,-1.0883,-1.0884,-1.0893,-1.0853,-1.0853,-1.0853,-1.0853,-1.0853,-1.0853,-1.015,-1.0217,-1.0278,-1.0388,-1.0446,-1.0533,-1.0656,-1.0716,-1.0801,-1.0846,-1.0847,-1.09,-1.088,-1.0874,-1.0854,-1.0854,-1.0854,-1.0854,-1.0854,-1.0167,-1.0175,-1.0269,-1.0327,-1.0463,-1.054,-1.063,-1.0745,-1.0805,-1.0844,-1.0894,-1.0868,-1.0894,-1.0896,-1.0891,-1.0877,-1.0877,-1.0877,-1.0877,-1.015,-1.017,-1.0283,-1.0371,-1.0467,-1.0556,-1.0661,-1.0758,-1.0859,-1.0901,-1.0913,-1.0912,-1.0911,-1.0939,-1.0939,-1.0936,-1.0934,-1.0934,-1.0934,-1.0165,-1.0198,-1.0273,-1.0371,-1.0481,-1.0575,-1.0676,-1.0775,-1.0892,-1.0938,-1.0935,-1.0933,-1.0933,-1.0929,-1.0974,-1.0973,-1.0968,0,0]},{"header":{"parameterUnit":"m.s-1","parameterCategory":1,"la1":30.2992,"la2":30.254,"lo1":-89.0895,"lo2":-89.0443,"dy":0.0025,"dx":0.0025,"nx":19,"ny":19,"refTime":"2026-03-14T09:00:00:Z","depth":0,"parameterNumber":3,"parameterNumberName":"V-component_of_WINDS"},"data":[0,0,0,6.4971,6.4975,6.5166,6.5167,6.5404,6.5406,0,0,0,0,0,0,0,0,0,0,0,6.4908,6.4909,6.4971,6.4975,6.5166,6.5167,6.5404,6.5406,0,0,0,0,0,0,0,0,0,0,0,6.4907,6.4909,6.4911,6.4976,6.5166,6.5167,6.5403,6.5262,0,0,0,0,0,0,0,0,0,0,6.5078,6.5013,6.4909,6.4911,6.4977,6.5166,6.5167,6.5255,6.5271,6.5314,0,6.5348,0,6.5381,6.5421,6.5422,0,0,0,6.4981,6.5,6.5057,6.4911,6.4979,6.5166,6.5082,6.5264,6.5282,6.5334,6.5352,6.5361,6.5385,6.5423,6.5424,6.5652,6.5652,0,0,6.497,6.4939,6.5045,6.5068,6.5036,6.5075,6.5087,6.5275,6.5293,6.5353,6.5366,6.5389,6.5424,6.5426,6.5651,6.5652,0,0,0,6.4936,6.4931,6.4984,6.5058,6.5093,6.5081,6.5095,6.5284,6.5304,6.5369,6.5391,6.5425,6.5428,6.565,6.5651,6.5662,0,0,0,6.493,6.4912,6.498,6.4963,6.5089,6.5191,6.51,6.5291,6.5313,6.539,6.5426,6.543,6.5649,6.5651,6.566,6.5673,0,0,0,6.4898,6.4908,6.4933,6.496,6.5041,6.5188,6.5219,6.5297,6.5327,6.5422,6.5431,6.5649,6.565,6.5658,6.567,6.5725,0,0,0,6.4854,6.4939,6.4933,6.5037,6.504,6.5193,6.5218,6.5334,6.5417,6.5427,6.5649,6.5651,6.5658,6.5668,6.5723,6.5766,6.5781,0,0,6.4944,6.4949,6.5013,6.5013,6.516,6.5166,6.5316,6.5422,6.5459,6.5586,6.5592,6.5661,6.5669,6.5725,6.5875,6.5887,0,0,0,6.5031,6.5077,6.5122,6.52,6.5283,6.5356,6.5442,6.5482,6.5591,6.5517,6.5697,6.5703,6.5736,6.5759,6.5769,6.58,6.566,6.566,6.5659,6.5113,6.5158,6.5267,6.5335,6.5411,6.55,6.5567,6.5636,6.5657,6.57,6.5737,6.5823,6.5848,6.5856,6.5888,6.5763,6.5764,6.5764,6.5764,6.525,6.5322,6.5352,6.5468,6.5516,6.5615,6.5706,6.5719,6.582,6.5797,6.5829,6.5801,6.5867,6.5898,6.5765,6.5765,6.5765,6.5764,6.5764,6.5309,6.5352,6.5399,6.5518,6.5606,6.5673,6.5769,6.5809,6.5847,6.5879,6.5925,6.5925,6.5931,6.5898,6.5898,6.5898,6.5899,6.5899,6.5899,6.5352,6.5405,6.548,6.5578,6.5635,6.5715,6.5808,6.5866,6.5941,6.5962,6.5963,6.5982,6.5865,6.5835,6.5904,6.5903,6.5902,6.5902,6.5902,6.5474,6.5454,6.5569,6.5627,6.5747,6.5833,6.5883,6.5998,6.6052,6.6099,6.6113,6.6019,6.6027,6.6019,6.5995,6.6102,6.6102,6.6102,6.6102,6.5524,6.5533,6.5662,6.5752,6.5844,6.5902,6.6036,6.6111,6.6185,6.6222,6.6213,6.6184,6.6175,6.6188,6.6177,6.6155,6.63,6.63,6.63,6.5603,6.5623,6.5727,6.5799,6.5897,6.5981,6.6108,6.6212,6.6292,6.6309,6.6253,6.6245,6.6198,6.6181,6.6195,6.6176,6.6137,0,0]}]]